���t,����,�O�C���x,�����t���O,�O�C���Ύ��x,�����t���O,���ԋ�C���x,�����t���O,���ԑ��Ύ��x,�����t���O,�g�C���^���N����,�����t���O,���֋�C���x,�����t���O,��g�[�����x,�����t���O
2002/11/1,0:00,13.3,0,99,0,22.8,0,52.4,0,17.6,0,17.1,0,16.1,0
2002/11/1,0:15,13.3,0,99,0,22.9,0,50.7,0,17.6,0,17.2,0,16.2,0
2002/11/1,0:30,13.5,0,99,0,22.8,0,50.5,0,17.7,0,17.2,0,16.2,0
2002/11/1,0:45,13.6,0,99,0,22.7,0,51,0,17.7,0,17.2,0,16.3,0
2002/11/1,1:00,13.7,0,99,0,22.6,0,51.3,0,17.8,0,17.3,0,16.3,0
2002/11/1,1:15,13.9,0,99,0,22.3,0,51.4,0,17.8,0,17.3,0,16.3,0
2002/11/1,1:30,13.8,0,99,0,22.1,0,51.8,0,17.8,0,17.3,0,16.4,0
2002/11/1,1:45,13.7,0,99,0,22,0,52.4,0,17.2,0,17.3,0,16.4,0
2002/11/1,2:00,13.7,0,99,0,21.8,0,52.7,0,17.2,0,17.3,0,16.4,0
2002/11/1,2:15,13.8,0,99,0,21.7,0,53.1,0,17.3,0,17.3,0,16.4,0
2002/11/1,2:30,13.8,0,99,0,21.6,0,53.8,0,17.3,0,17.3,0,16.4,0
2002/11/1,2:45,13.9,0,99,0,21.4,0,54.4,0,17.4,0,17.3,0,16.4,0
2002/11/1,3:00,14.2,0,99,0,21.3,0,54.9,0,17.4,0,17.3,0,16.4,0
2002/11/1,3:15,14.3,0,99,0,21.1,0,55.2,0,17.5,0,17.3,0,16.4,0
2002/11/1,3:30,14.3,0,99,0,21,0,55.7,0,17.5,0,17.3,0,16.4,0
2002/11/1,3:45,14.3,0,99,0,20.9,0,56.2,0,17.6,0,17.3,0,16.4,0
2002/11/1,4:00,14.3,0,99,0,20.7,0,56.5,0,17.6,0,17.3,0,16.4,0
2002/11/1,4:15,14.5,0,99,0,20.6,0,56.8,0,17.6,0,17.3,0,16.5,0
2002/11/1,4:30,14.4,0,99,0,20.5,0,57,0,17.7,0,17.3,0,16.5,0
2002/11/1,4:45,14.3,0,99,0,20.4,0,57.2,0,17.8,0,17.3,0,16.5,0
2002/11/1,5:00,14.2,0,99,0,20.3,0,57.7,0,17.8,0,17.3,0,16.5,0
2002/11/1,5:15,14,0,99,0,20.2,0,57.6,0,17.8,0,17.3,0,16.5,0
2002/11/1,5:30,14.1,0,99,0,20.1,0,58.2,0,17.9,0,17.3,0,16.5,0
2002/11/1,5:45,14.2,0,99,0,20,0,58.5,0,17.9,0,17.3,0,16.5,0
2002/11/1,6:00,14.2,0,98,0,19.9,0,59.7,0,18,0,17.3,0,16.5,0
2002/11/1,6:15,14.3,0,97,0,19.9,0,59.5,0,18,0,17.3,0,16.5,0
2002/11/1,6:30,14.1,0,98,0,19.8,0,59.6,0,18.1,0,17.3,0,16.5,0
2002/11/1,6:45,14.1,0,99,0,19.7,0,59.6,0,18.1,0,17.3,0,16.5,0
2002/11/1,7:00,14.3,0,99,0,19.7,0,59.6,0,18.1,0,17.3,0,16.5,0
2002/11/1,7:15,14.3,0,98,0,19.6,0,59.4,0,18.2,0,17.3,0,16.5,0
2002/11/1,7:30,14.4,0,98,0,19.6,0,60.6,0,19.2,0,17.3,0,16.5,0
2002/11/1,7:45,14.4,0,98,0,19.2,0,61.1,0,18.9,0,17.3,0,16.6,0
2002/11/1,8:00,14.5,0,98,0,19,0,61.4,0,19,0,17.4,0,16.7,0
2002/11/1,8:15,14.6,0,99,0,19,0,61.6,0,19,0,17.4,0,16.8,0
2002/11/1,8:30,14.5,0,99,0,18.9,0,61.8,0,17.8,0,17.5,0,16.9,0
2002/11/1,8:45,14.6,0,99,0,18.8,0,62.1,0,17.6,0,17.5,0,16.9,0
2002/11/1,9:00,14.8,0,99,0,18.7,0,62.6,0,17.7,0,17.5,0,17,0
2002/11/1,9:15,15.1,0,98,0,18.7,0,63,0,17.8,0,17.5,0,17,0
2002/11/1,9:30,15.5,0,93,0,18.9,0,63.4,0,17.8,0,17.6,0,17.2,0
2002/11/1,9:45,15.4,0,93,0,18.8,0,63.5,0,17.9,0,17.6,0,17.2,0
2002/11/1,10:00,16.1,0,87,0,18.9,0,63,0,17.9,0,17.6,0,17.3,0
2002/11/1,10:15,17.9,0,74,0,19,0,63.1,0,17.9,0,17.7,0,17.4,0
2002/11/1,10:30,19.4,0,68,0,19.1,0,62.6,0,18,0,17.7,0,17.7,0
2002/11/1,10:45,18.8,0,67,0,19.2,0,62.1,0,18,0,17.8,0,17.8,0
2002/11/1,11:00,18.4,0,68,0,19.1,0,62.1,0,18.1,0,17.8,0,17.9,0
2002/11/1,11:15,18.7,0,65,0,19.2,0,61.8,0,18.1,0,17.9,0,18,0
2002/11/1,11:30,19.8,0,61,0,19.4,0,61.4,0,18.2,0,17.9,0,18.2,0
2002/11/1,11:45,19.4,0,62,0,19.4,0,61.1,0,18.2,0,18,0,18.3,0
2002/11/1,12:00,19.3,0,59,0,19.5,0,60.6,0,18.3,0,18,0,18.4,0
2002/11/1,12:15,19.6,0,57,0,19.6,0,60.3,0,18.3,0,18.1,0,18.6,0
2002/11/1,12:30,19.9,0,56,0,19.6,0,60.1,0,18.4,0,18.1,0,18.7,0
2002/11/1,12:45,19.2,0,64,0,19.6,0,60.1,0,18.4,0,18.2,0,18.7,0
2002/11/1,13:00,19,0,62,0,19.6,0,59.8,0,18.5,0,18.2,0,18.8,0
2002/11/1,13:15,18.4,0,60,0,19.6,0,59.9,0,18.5,0,18.2,0,18.8,0
2002/11/1,13:30,18.5,0,57,0,19.6,0,59.9,0,18.5,0,18.3,0,18.9,0
2002/11/1,13:45,18.8,0,52,0,19.7,0,59.4,0,18.6,0,18.3,0,18.9,0
2002/11/1,14:00,18.7,0,55,0,19.7,0,59.1,0,18.6,0,18.3,0,19,0
2002/11/1,14:15,18.6,0,54,0,19.7,0,58.6,0,18.7,0,18.3,0,19.1,0
2002/11/1,14:30,18.5,0,54,0,19.7,0,58.5,0,18.7,0,18.4,0,19.1,0
2002/11/1,14:45,18.4,0,52,0,19.7,0,58.1,0,18.8,0,18.4,0,19.1,0
2002/11/1,15:00,18,0,53,0,19.7,0,57.9,0,18.8,0,18.4,0,19.2,0
2002/11/1,15:15,18,0,53,0,19.7,0,57.4,0,18.8,0,18.5,0,19.2,0
2002/11/1,15:30,18,0,50,0,19.7,0,57.1,0,18.8,0,18.5,0,19.2,0
2002/11/1,15:45,17.5,0,44,0,19.6,0,56.7,0,18.9,0,18.5,0,19.2,0
2002/11/1,16:00,17.5,0,44,0,19.6,0,56.5,0,18.9,0,18.5,0,19.2,0
2002/11/1,16:15,17.4,0,46,0,19.6,0,55.9,0,18.9,0,18.5,0,19.3,0
2002/11/1,16:30,17.1,0,44,0,19.5,0,55.7,0,19,0,18.5,0,19.2,0
2002/11/1,16:45,16.8,0,42,0,19.5,0,55.3,0,19,0,18.5,0,19.2,0
2002/11/1,17:00,16.6,0,47,0,19.5,0,54.8,0,19.1,0,18.5,0,19.2,0
2002/11/1,17:15,16.2,0,44,0,19.4,0,54.1,0,19.1,0,18.5,0,19.1,0
2002/11/1,17:30,15.9,0,43,0,19.4,0,53.5,0,19.1,0,18.5,0,19.1,0
2002/11/1,17:45,15.6,0,44,0,19.3,0,52.8,0,19.1,0,18.4,0,19,0
2002/11/1,18:00,15.4,0,44,0,19.1,0,52.5,0,19.2,0,18.4,0,18.9,0
2002/11/1,18:15,15.1,0,43,0,19,0,52.1,0,19.2,0,18.3,0,18.8,0
2002/11/1,18:30,15.1,0,44,0,18.9,0,51.7,0,19.2,0,18.3,0,18.8,0
2002/11/1,18:45,14.9,0,47,0,18.8,0,51.8,0,19.2,0,18.3,0,18.7,0
2002/11/1,19:00,14.7,0,50,0,18.8,0,52.1,0,19.3,0,18.2,0,18.6,0
2002/11/1,19:15,14.6,0,53,0,18.7,0,52.5,0,19.3,0,18.2,0,18.5,0
2002/11/1,19:30,14.5,0,52,0,18.6,0,52.2,0,19.3,0,18.2,0,18.4,0
2002/11/1,19:45,14.4,0,51,0,18.5,0,51.8,0,19.3,0,18.1,0,18.3,0
2002/11/1,20:00,14.3,0,51,0,18.4,0,51.7,0,19.3,0,18.1,0,18.2,0
2002/11/1,20:15,14.3,0,51,0,18.5,0,52.4,0,19.3,0,18,0,18.1,0
2002/11/1,20:30,14.2,0,53,0,18.6,0,53.1,0,19.4,0,17.9,0,18,0
2002/11/1,20:45,14.1,0,51,0,18.6,0,52.9,0,19.4,0,17.8,0,17.9,0
2002/11/1,21:00,14.1,0,50,0,18.6,0,53,0,19.4,0,17.7,0,17.8,0
2002/11/1,21:15,14,0,51,0,18.6,0,53.2,0,19.4,0,17.7,0,17.7,0
2002/11/1,21:30,13.9,0,50,0,18.3,0,51.4,0,19.4,0,17.7,0,17.7,0
2002/11/1,21:45,13.8,0,51,0,18.2,0,51.5,0,19.4,0,17.7,0,17.6,0
2002/11/1,22:00,13.8,0,52,0,18.1,0,51.5,0,19.4,0,17.6,0,17.5,0
2002/11/1,22:15,13.5,0,51,0,18,0,51.9,0,19.4,0,17.6,0,17.5,0
2002/11/1,22:30,13.4,0,51,0,17.9,0,51.6,0,19.4,0,17.6,0,17.4,0
2002/11/1,22:45,13.2,0,52,0,17.8,0,51.6,0,19.4,0,17.5,0,17.4,0
2002/11/1,23:00,13.3,0,49,0,17.8,0,51.6,0,19.5,0,17.5,0,17.3,0
2002/11/1,23:15,13.2,0,50,0,17.7,0,51.7,0,19.5,0,17.4,0,17.2,0
2002/11/1,23:30,13.1,0,50,0,17.6,0,51.5,0,19.5,0,17.4,0,17.1,0
2002/11/1,23:45,13,0,49,0,17.5,0,51.4,0,19.5,0,17.3,0,17.1,0
2002/11/2,0:00,13,0,51,0,17.5,0,51.2,0,19.5,0,17.3,0,17,0
2002/11/2,0:15,12.9,0,50,0,17.4,0,51.2,0,19.5,0,17.3,0,16.9,0
2002/11/2,0:30,12.8,0,51,0,17.3,0,50.8,0,19.5,0,17.2,0,16.9,0
2002/11/2,0:45,12.7,0,51,0,17.3,0,50.6,0,19.5,0,17.1,0,16.8,0
2002/11/2,1:00,12.7,0,51,0,17.2,0,50.6,0,19.5,0,17.1,0,16.7,0
2002/11/2,1:15,12.6,0,51,0,17.1,0,50.4,0,19.5,0,17,0,16.7,0
2002/11/2,1:30,12.4,0,52,0,17.1,0,50.9,0,19.5,0,17,0,16.6,0
2002/11/2,1:45,12.4,0,52,0,17.3,0,51.4,0,17.1,0,16.9,0,16.6,0
2002/11/2,2:00,12.3,0,52,0,17.4,0,53.2,0,17.2,0,16.9,0,16.5,0
2002/11/2,2:15,12.3,0,53,0,17.4,0,54,0,17.2,0,16.8,0,16.4,0
2002/11/2,2:30,12.3,0,53,0,17.5,0,55.5,0,17.3,0,16.9,0,16.4,0
2002/11/2,2:45,12.1,0,52,0,17.6,0,55.4,0,17.3,0,16.8,0,16.3,0
2002/11/2,3:00,12.1,0,52,0,17.6,0,54.5,0,17.4,0,16.9,0,16.3,0
2002/11/2,3:15,12,0,52,0,17.7,0,54.4,0,17.4,0,16.8,0,16.2,0
2002/11/2,3:30,11.9,0,53,0,17.8,0,54.6,0,17.4,0,16.8,0,16.2,0
2002/11/2,3:45,11.9,0,52,0,17.8,0,53.8,0,17.5,0,16.7,0,16.1,0
2002/11/2,4:00,11.7,0,51,0,17.7,0,53.6,0,17.5,0,16.7,0,16,0
2002/11/2,4:15,11.7,0,52,0,17.7,0,53.4,0,17.5,0,16.6,0,16,0
2002/11/2,4:30,11.5,0,53,0,17.6,0,52.9,0,17.6,0,16.6,0,15.9,0
2002/11/2,4:45,11.3,0,53,0,17.6,0,52.8,0,17.6,0,16.5,0,15.9,0
2002/11/2,5:00,11.2,0,53,0,17.5,0,52.7,0,17.6,0,16.5,0,15.8,0
2002/11/2,5:15,11.1,0,54,0,17.5,0,52.4,0,17.6,0,16.5,0,15.8,0
2002/11/2,5:30,10.9,0,55,0,17.4,0,52.1,0,17.7,0,16.4,0,15.7,0
2002/11/2,5:45,10.9,0,56,0,17.3,0,52.2,0,17.7,0,16.4,0,15.7,0
2002/11/2,6:00,10.5,0,55,0,17.3,0,53.6,0,17.7,0,16.3,0,15.6,0
2002/11/2,6:15,10.4,0,54,0,17.2,0,53.2,0,17.7,0,16.2,0,15.5,0
2002/11/2,6:30,10.3,0,55,0,17.2,0,52.9,0,17.8,0,16.2,0,15.5,0
2002/11/2,6:45,10.1,0,53,0,17.1,0,52.5,0,17.8,0,16.1,0,15.4,0
2002/11/2,7:00,10.1,0,52,0,17,0,52.3,0,17.8,0,16.1,0,15.4,0
2002/11/2,7:15,10.2,0,51,0,16.9,0,50.3,0,16.5,0,16,0,15.3,0
2002/11/2,7:30,10.5,0,51,0,16.8,0,50.8,0,18.2,0,16,0,15.3,0
2002/11/2,7:45,10.4,0,51,0,16.6,0,50.5,0,18.2,0,16,0,15.3,0
2002/11/2,8:00,10.3,0,53,0,16.5,0,50.4,0,18.2,0,16,0,15.3,0
2002/11/2,8:15,10.5,0,55,0,16.5,0,50.5,0,17.4,0,15.9,0,15.3,0
2002/11/2,8:30,10.4,0,55,0,17,0,50.8,0,17.5,0,15.9,0,15.2,0
2002/11/2,8:45,10.2,0,59,0,17.4,0,51,0,17.5,0,15.9,0,15.1,0
2002/11/2,9:00,10.2,0,63,0,17.9,0,50.6,0,17.5,0,15.8,0,15,0
2002/11/2,9:15,10.4,0,65,0,18.3,0,50.4,0,17.5,0,15.8,0,14.9,0
2002/11/2,9:30,10.4,0,66,0,18.5,0,49.3,0,17.6,0,15.8,0,14.9,0
2002/11/2,9:45,10.4,0,63,0,18.6,0,49.3,0,17.6,0,15.8,0,14.9,0
2002/11/2,10:00,10.5,0,60,0,18.6,0,49.1,0,17.6,0,15.8,0,14.9,0
2002/11/2,10:15,10.7,0,62,0,18.5,0,49.1,0,17.6,0,15.8,0,14.8,0
2002/11/2,10:30,11.1,0,55,0,18.5,0,49.2,0,17.7,0,15.8,0,14.8,0
2002/11/2,10:45,11,0,53,0,18.4,0,49.3,0,17.7,0,15.8,0,14.8,0
2002/11/2,11:00,10.8,0,57,0,18.4,0,49.1,0,17.7,0,15.7,0,14.8,0
2002/11/2,11:15,11,0,58,0,18.3,0,49.2,0,17.7,0,15.7,0,14.8,0
2002/11/2,11:30,11.5,0,55,0,18.3,0,49,0,17.7,0,15.7,0,14.8,0
2002/11/2,11:45,11.6,0,55,0,18.5,0,49,0,17.7,0,15.7,0,14.8,0
2002/11/2,12:00,11.5,0,56,0,18.2,0,48.8,0,16.4,0,15.7,0,14.8,0
2002/11/2,12:15,12.4,0,52,0,18.2,0,48.8,0,16.5,0,15.7,0,14.8,0
2002/11/2,12:30,12.2,0,52,0,18.1,0,48.5,0,16.5,0,15.7,0,14.9,0
2002/11/2,12:45,12.4,0,54,0,18.2,0,49.2,0,16.5,0,15.7,0,14.9,0
2002/11/2,13:00,12.1,0,53,0,18,0,48.9,0,16.6,0,15.6,0,14.9,0
2002/11/2,13:15,12.1,0,55,0,17.9,0,48.5,0,16.6,0,15.6,0,14.9,0
2002/11/2,13:30,12.3,0,54,0,17.7,0,47.8,0,16.7,0,15.6,0,14.9,0
2002/11/2,13:45,12.1,0,54,0,17.6,0,47.5,0,16.7,0,15.6,0,14.9,0
2002/11/2,14:00,12,0,55,0,17.5,0,47.4,0,16.7,0,15.6,0,14.9,0
2002/11/2,14:15,12,0,52,0,17.4,0,47.8,0,16.8,0,15.6,0,14.9,0
2002/11/2,14:30,11.9,0,52,0,17.3,0,47.8,0,16.8,0,15.6,0,14.9,0
2002/11/2,14:45,11.8,0,54,0,17.3,0,47.7,0,16.9,0,15.6,0,14.9,0
2002/11/2,15:00,11.8,0,55,0,17.2,0,47.7,0,16.9,0,15.6,0,14.9,0
2002/11/2,15:15,12,0,52,0,17.1,0,47.5,0,16.9,0,15.5,0,14.9,0
2002/11/2,15:30,12,0,51,0,17,0,47.6,0,17,0,15.5,0,14.9,0
2002/11/2,15:45,12.1,0,52,0,17,0,47.6,0,17,0,15.5,0,14.9,0
2002/11/2,16:00,12.1,0,52,0,16.9,0,47.4,0,17,0,15.5,0,14.9,0
2002/11/2,16:15,12,0,51,0,16.9,0,47.3,0,17,0,15.5,0,14.9,0
2002/11/2,16:30,11.9,0,52,0,16.8,0,47.6,0,17.1,0,15.4,0,14.8,0
2002/11/2,16:45,11.7,0,53,0,16.7,0,47.5,0,17.1,0,15.4,0,14.8,0
2002/11/2,17:00,11.7,0,53,0,16.7,0,47.4,0,17.1,0,15.4,0,14.8,0
2002/11/2,17:15,11.5,0,52,0,16.6,0,47.5,0,17.1,0,15.3,0,14.8,0
2002/11/2,17:30,11.5,0,52,0,16.5,0,47.4,0,17.2,0,15.3,0,14.8,0
2002/11/2,17:45,11.5,0,54,0,16.4,0,47.5,0,17.2,0,15.3,0,14.7,0
2002/11/2,18:00,11.5,0,55,0,16.4,0,47.4,0,17.2,0,15.3,0,14.7,0
2002/11/2,18:15,11.5,0,54,0,16.3,0,47.4,0,17.2,0,15.2,0,14.7,0
2002/11/2,18:30,11.3,0,52,0,16.2,0,47.5,0,17.2,0,15.2,0,14.7,0
2002/11/2,18:45,11.3,0,52,0,16.2,0,47.4,0,17.2,0,15.2,0,14.6,0
2002/11/2,19:00,11.1,0,53,0,16.1,0,47.6,0,17.3,0,15.1,0,14.6,0
2002/11/2,19:15,11,0,53,0,16,0,47.5,0,17.3,0,15.1,0,14.6,0
2002/11/2,19:30,11,0,55,0,16,0,47.6,0,17.3,0,15.1,0,14.5,0
2002/11/2,19:45,10.9,0,52,0,15.9,0,47.6,0,17.3,0,15,0,14.5,0
2002/11/2,20:00,10.7,0,52,0,15.8,0,47.6,0,17.3,0,15,0,14.5,0
2002/11/2,20:15,10.7,0,53,0,15.7,0,47.7,0,17.3,0,15,0,14.4,0
2002/11/2,20:30,10.6,0,54,0,15.7,0,47.6,0,17.4,0,14.9,0,14.4,0
2002/11/2,20:45,10.7,0,54,0,15.6,0,47.5,0,17.4,0,14.9,0,14.4,0
2002/11/2,21:00,10.8,0,58,0,15.7,0,48,0,15.6,0,14.9,0,14.3,0
2002/11/2,21:15,10.6,0,58,0,15.7,0,48.6,0,15.7,0,14.9,0,14.3,0
2002/11/2,21:30,10.5,0,58,0,15.8,0,48.9,0,15.7,0,14.8,0,14.3,0
2002/11/2,21:45,10.7,0,57,0,16.3,0,49.3,0,15.8,0,14.8,0,14.2,0
2002/11/2,22:00,10.8,0,57,0,16.7,0,49,0,15.8,0,14.8,0,14.2,0
2002/11/2,22:15,10.6,0,58,0,17.2,0,48.4,0,15.9,0,14.8,0,14.2,0
2002/11/2,22:30,10.7,0,56,0,17.7,0,47.9,0,15.9,0,14.8,0,14.2,0
2002/11/2,22:45,10.6,0,59,0,18.1,0,47.6,0,15.9,0,14.8,0,14.2,0
2002/11/2,23:00,10.6,0,57,0,18.5,0,46.6,0,16,0,14.9,0,14.2,0
2002/11/2,23:15,10.8,0,59,0,18.9,0,46,0,16,0,14.9,0,14.2,0
2002/11/2,23:30,10.7,0,59,0,19.3,0,45.6,0,16.1,0,14.9,0,14.2,0
2002/11/2,23:45,10.9,0,55,0,19.7,0,45.5,0,16.1,0,14.9,0,14.2,0
2002/11/3,0:00,10.8,0,54,0,20,0,45,0,16.1,0,14.9,0,14.2,0
2002/11/3,0:15,10.9,0,55,0,20.4,0,44.5,0,16.2,0,15,0,14.2,0
2002/11/3,0:30,10.9,0,53,0,20.8,0,44.4,0,16.2,0,15,0,14.2,0
2002/11/3,0:45,11.1,0,53,0,21.2,0,44.3,0,16.2,0,15,0,14.2,0
2002/11/3,1:00,11,0,59,0,21.2,0,43.8,0,16.2,0,15.1,0,14.2,0
2002/11/3,1:15,10.7,0,67,0,21,0,43.8,0,16.3,0,15.1,0,14.3,0
2002/11/3,1:30,10.3,0,69,0,20.8,0,44.3,0,16.3,0,15.1,0,14.2,0
2002/11/3,1:45,10.4,0,70,0,20.7,0,45,0,16.3,0,15.1,0,14.2,0
2002/11/3,2:00,10.3,0,69,0,20.5,0,45.3,0,16.4,0,15.1,0,14.2,0
2002/11/3,2:15,10.2,0,72,0,20.4,0,45.7,0,16.4,0,15.1,0,14.2,0
2002/11/3,2:30,10.1,0,72,0,20.2,0,46.2,0,16.4,0,15.1,0,14.2,0
2002/11/3,2:45,10.4,0,72,0,19.6,0,44.4,0,16.5,0,15.1,0,14.2,0
2002/11/3,3:00,10.4,0,72,0,19.3,0,44.6,0,16.5,0,15.1,0,14.3,0
2002/11/3,3:15,10.4,0,72,0,19.1,0,45,0,16.5,0,15.1,0,14.3,0
2002/11/3,3:30,10.8,0,65,0,18.9,0,45.3,0,16.6,0,15.1,0,14.3,0
2002/11/3,3:45,11,0,62,0,18.7,0,45.4,0,16.6,0,15.1,0,14.4,0
2002/11/3,4:00,11,0,62,0,18.5,0,45.6,0,16.6,0,15.1,0,14.4,0
2002/11/3,4:15,11,0,63,0,18.3,0,46,0,16.6,0,15.1,0,14.4,0
2002/11/3,4:30,11.1,0,61,0,18.2,0,46.1,0,16.6,0,15.1,0,14.4,0
2002/11/3,4:45,11.2,0,60,0,18,0,46.2,0,16.7,0,15.1,0,14.4,0
2002/11/3,5:00,11.3,0,57,0,17.8,0,46.5,0,16.7,0,15,0,14.4,0
2002/11/3,5:15,11.3,0,60,0,17.7,0,46.7,0,16.7,0,15,0,14.4,0
2002/11/3,5:30,11.5,0,53,0,17.6,0,46.9,0,16.7,0,15,0,14.4,0
2002/11/3,5:45,11.8,0,48,0,17.5,0,47,0,16.8,0,15,0,14.4,0
2002/11/3,6:00,11.7,0,49,0,17.4,0,47.1,0,16.8,0,15,0,14.3,0
2002/11/3,6:15,11.7,0,49,0,17.2,0,47.2,0,16.8,0,14.9,0,14.3,0
2002/11/3,6:30,11.8,0,51,0,17.1,0,47.4,0,16.8,0,14.9,0,14.3,0
2002/11/3,6:45,11.8,0,52,0,17,0,47.4,0,16.9,0,14.9,0,14.3,0
2002/11/3,7:00,11.9,0,52,0,16.9,0,47.6,0,16.9,0,14.9,0,14.3,0
2002/11/3,7:15,11.9,0,51,0,16.9,0,47.7,0,16.9,0,14.9,0,14.3,0
2002/11/3,7:30,12.1,0,50,0,16.8,0,47.8,0,16.9,0,14.9,0,14.3,0
2002/11/3,7:45,12.3,0,52,0,16.7,0,47.8,0,16.9,0,14.9,0,14.3,0
2002/11/3,8:00,12.3,0,53,0,16.7,0,48.2,0,17.7,0,14.9,0,14.3,0
2002/11/3,8:15,12.5,0,51,0,16.8,0,48.9,0,17.7,0,14.9,0,14.3,0
2002/11/3,8:30,12.5,0,49,0,17,0,49.3,0,17.8,0,14.9,0,14.3,0
2002/11/3,8:45,12.4,0,54,0,17.4,0,49,0,17.7,0,14.9,0,14.3,0
2002/11/3,9:00,12.3,0,58,0,17.9,0,48.8,0,17.8,0,14.9,0,14.3,0
2002/11/3,9:15,13,0,57,0,18.4,0,48.5,0,17.8,0,14.9,0,14.5,0
2002/11/3,9:30,12.4,0,63,0,18.9,0,48.3,0,16.4,0,14.9,0,14.5,0
2002/11/3,9:45,12.5,0,65,0,19.3,0,47.6,0,16.4,0,15,0,14.5,0
2002/11/3,10:00,12.2,0,68,0,19.7,0,46.7,0,16.5,0,15,0,14.5,0
2002/11/3,10:15,12.2,0,68,0,20,0,46.5,0,16.5,0,15.1,0,14.5,0
2002/11/3,10:30,12.1,0,68,0,20.5,0,45.9,0,16.6,0,15.1,0,14.5,0
2002/11/3,10:45,12.1,0,67,0,20.8,0,45.4,0,16.6,0,15.2,0,14.5,0
2002/11/3,11:00,12.1,0,69,0,21.5,0,44.2,0,16.6,0,15.2,0,14.6,0
2002/11/3,11:15,12,0,69,0,22.4,0,43,0,16.7,0,15.3,0,14.6,0
2002/11/3,11:30,11.9,0,66,0,23,0,42,0,16.7,0,15.3,0,14.6,0
2002/11/3,11:45,12.1,0,66,0,23.5,0,41.4,0,15.5,0,15.4,0,14.7,0
2002/11/3,12:00,12.2,0,66,0,23.6,0,40.7,0,15.6,0,15.4,0,14.7,0
2002/11/3,12:15,11.7,0,67,0,22.8,0,40.9,0,15.6,0,15.5,0,14.8,0
2002/11/3,12:30,11.9,0,67,0,22.3,0,41.5,0,15.7,0,15.5,0,14.8,0
2002/11/3,12:45,12.1,0,66,0,21.9,0,42,0,15.7,0,15.5,0,14.8,0
2002/11/3,13:00,12.7,0,56,0,21.6,0,42.2,0,15.8,0,15.5,0,14.8,0
2002/11/3,13:15,12.8,0,54,0,21.3,0,42.4,0,15.8,0,15.5,0,14.9,0
2002/11/3,13:30,13,0,54,0,21.1,0,42.5,0,15.9,0,15.5,0,14.9,0
2002/11/3,13:45,13,0,51,0,20.9,0,42.5,0,15.9,0,15.5,0,14.9,0
2002/11/3,14:00,13.7,0,47,0,20.7,0,42.6,0,16,0,15.5,0,15,0
2002/11/3,14:15,13.5,0,45,0,20.6,0,42.7,0,16,0,15.5,0,15,0
2002/11/3,14:30,13.6,0,45,0,20.4,0,42.8,0,16,0,15.5,0,15.1,0
2002/11/3,14:45,13.8,0,47,0,20.3,0,42.8,0,16.1,0,15.5,0,15.1,0
2002/11/3,15:00,13.6,0,45,0,20.1,0,42.8,0,16.2,0,15.5,0,15.1,0
2002/11/3,15:15,13.5,0,46,0,19.9,0,42.8,0,16.2,0,15.5,0,15.2,0
2002/11/3,15:30,13.6,0,48,0,19.8,0,42.8,0,16.2,0,15.5,0,15.2,0
2002/11/3,15:45,13.6,0,47,0,19.7,0,42.8,0,16.3,0,15.5,0,15.2,0
2002/11/3,16:00,13.4,0,47,0,19.6,0,42.9,0,16.3,0,15.5,0,15.3,0
2002/11/3,16:15,13.2,0,47,0,19.4,0,43,0,16.4,0,15.5,0,15.2,0
2002/11/3,16:30,13.1,0,47,0,19.3,0,43.4,0,16.4,0,15.4,0,15.2,0
2002/11/3,16:45,12.4,0,58,0,19.2,0,43.5,0,16.4,0,15.4,0,15.2,0
2002/11/3,17:00,10.6,0,73,0,19,0,43.7,0,16.5,0,15.4,0,15.2,0
2002/11/3,17:15,10.5,0,71,0,18.8,0,44.1,0,16.5,0,15.4,0,15.1,0
2002/11/3,17:30,10.2,0,75,0,18.7,0,44.6,0,16.6,0,15.4,0,15.1,0
2002/11/3,17:45,10.2,0,75,0,18.5,0,45,0,16.6,0,15.4,0,15,0
2002/11/3,18:00,10.2,0,71,0,18.4,0,45.4,0,16.6,0,15.3,0,14.9,0
2002/11/3,18:15,10.2,0,73,0,18.3,0,45.7,0,16.7,0,15.3,0,14.9,0
2002/11/3,18:30,10,0,76,0,18.1,0,46,0,16.7,0,15.3,0,14.8,0
2002/11/3,18:45,9.8,0,77,0,18,0,46.2,0,16.7,0,15.3,0,14.7,0
2002/11/3,19:00,10,0,74,0,17.9,0,46.6,0,16.7,0,15.2,0,14.7,0
2002/11/3,19:15,10.2,0,71,0,17.7,0,46.9,0,16.8,0,15.2,0,14.6,0
2002/11/3,19:30,10.3,0,74,0,17.6,0,47.1,0,16.8,0,15.2,0,14.6,0
2002/11/3,19:45,10.4,0,62,0,17.5,0,47.3,0,16.8,0,15.1,0,14.5,0
2002/11/3,20:00,10.4,0,62,0,17.4,0,47.5,0,16.8,0,15.1,0,14.5,0
2002/11/3,20:15,10.7,0,60,0,17.1,0,47.7,0,15.9,0,15.1,0,14.4,0
2002/11/3,20:30,10.8,0,61,0,17.2,0,48.5,0,15.9,0,15.4,0,14.4,0
2002/11/3,20:45,11,0,57,0,17,0,48.7,0,16,0,15.7,0,14.4,0
2002/11/3,21:00,10.9,0,60,0,17.9,0,48,0,15.5,0,15.5,0,14.4,0
2002/11/3,21:15,11,0,58,0,18.9,0,45.8,0,15.6,0,15.4,0,14.4,0
2002/11/3,21:30,10.9,0,56,0,19.7,0,44.4,0,15.7,0,15.3,0,14.3,0
2002/11/3,21:45,11,0,58,0,20.5,0,43.6,0,15.7,0,15.2,0,14.3,0
2002/11/3,22:00,11,0,57,0,21.3,0,42.5,0,15.8,0,15.2,0,14.3,0
2002/11/3,22:15,10.7,0,55,0,22.1,0,41.5,0,15.8,0,15.2,0,14.3,0
2002/11/3,22:30,10.7,0,57,0,22.7,0,40.5,0,15.8,0,15.1,0,14.3,0
2002/11/3,22:45,10.8,0,53,0,23.1,0,39.8,0,15.9,0,15.1,0,14.3,0
2002/11/3,23:00,10.7,0,51,0,23.2,0,39.4,0,15.9,0,15.1,0,14.3,0
2002/11/3,23:15,10.6,0,53,0,23.4,0,38.9,0,16,0,15.1,0,14.3,0
2002/11/3,23:30,10.5,0,50,0,23.5,0,38.4,0,16,0,15.2,0,14.3,0
2002/11/3,23:45,10.3,0,58,0,22.5,0,38.4,0,16.1,0,15.2,0,14.3,0
2002/11/4,0:00,10.1,0,54,0,21.9,0,39.2,0,16.1,0,15.2,0,14.3,0
2002/11/4,0:15,10,0,52,0,21.3,0,39.4,0,16.1,0,15.2,0,14.3,0
2002/11/4,0:30,9.9,0,53,0,20.8,0,39.3,0,16.1,0,15.2,0,14.3,0
2002/11/4,0:45,9.9,0,51,0,20.5,0,39.3,0,16.2,0,15.2,0,14.2,0
2002/11/4,1:00,9.8,0,52,0,20.1,0,39.5,0,16.2,0,15.1,0,14.2,0
2002/11/4,1:15,9.8,0,53,0,19.8,0,39.6,0,16.2,0,15.1,0,14.2,0
2002/11/4,1:30,9.8,0,54,0,19.6,0,40.1,0,16.2,0,15.1,0,14.1,0
2002/11/4,1:45,9.8,0,53,0,19.3,0,40.4,0,16.3,0,15,0,14.1,0
2002/11/4,2:00,9.8,0,52,0,19.1,0,40.6,0,16.3,0,15,0,14.1,0
2002/11/4,2:15,9.7,0,49,0,18.9,0,40.7,0,16.3,0,14.9,0,14,0
2002/11/4,2:30,9.8,0,49,0,18.8,0,40.7,0,16.4,0,14.9,0,14,0
2002/11/4,2:45,9.9,0,52,0,18.6,0,40.7,0,16.4,0,14.9,0,14,0
2002/11/4,3:00,9.9,0,52,0,18.4,0,40.6,0,16.4,0,14.8,0,13.9,0
2002/11/4,3:15,9.8,0,54,0,18.2,0,40.7,0,16.4,0,14.8,0,13.9,0
2002/11/4,3:30,9.3,0,61,0,18.1,0,40.8,0,16.4,0,14.8,0,13.9,0
2002/11/4,3:45,9.2,0,66,0,18,0,41.3,0,16.5,0,14.7,0,13.8,0
2002/11/4,4:00,9.1,0,61,0,18.5,0,41.2,0,16.5,0,14.7,0,13.8,0
2002/11/4,4:15,8.9,0,67,0,19.2,0,40.3,0,16.5,0,14.7,0,13.8,0
2002/11/4,4:30,8.9,0,63,0,19.8,0,39.6,0,16.5,0,14.7,0,13.8,0
2002/11/4,4:45,9.1,0,58,0,20.2,0,39,0,16.5,0,14.7,0,13.7,0
2002/11/4,5:00,9.4,0,53,0,20.7,0,38.1,0,16.5,0,14.7,0,13.7,0
2002/11/4,5:15,9.4,0,52,0,21.1,0,37,0,16.6,0,14.7,0,13.8,0
2002/11/4,5:30,9.4,0,53,0,21.5,0,36.2,0,16.5,0,14.7,0,13.8,0
2002/11/4,5:45,9.5,0,53,0,21.9,0,35.4,0,16.6,0,14.7,0,13.8,0
2002/11/4,6:00,9.5,0,53,0,22.3,0,34.9,0,16.6,0,14.7,0,13.8,0
2002/11/4,6:15,9.4,0,60,0,22.6,0,34.4,0,16.6,0,14.7,0,13.8,0
2002/11/4,6:30,9.3,0,56,0,22.9,0,34.1,0,16.6,0,14.8,0,13.8,0
2002/11/4,6:45,9.2,0,51,0,23.2,0,33.6,0,16.6,0,14.8,0,13.8,0
2002/11/4,7:00,9.1,0,49,0,23.4,0,33.3,0,14,0,14.8,0,13.8,0
2002/11/4,7:15,9.1,0,49,0,23.9,0,36.6,0,15.1,0,14.8,0,13.9,0
2002/11/4,7:30,9.4,0,45,0,24.3,0,35.1,0,15.2,0,14.8,0,13.9,0
2002/11/4,7:45,10.1,0,40,0,24.4,0,34.5,0,16.7,0,14.9,0,14,0
2002/11/4,8:00,10.8,0,39,0,24,0,36.8,0,18.2,0,15.1,0,14.2,0
2002/11/4,8:15,10.2,0,39,0,23.3,0,36.2,0,18.2,0,15.1,0,14.3,0
2002/11/4,8:30,11.2,0,39,0,22.8,0,35.7,0,18.2,0,15,0,14.4,0
2002/11/4,8:45,11,0,39,0,22.5,0,36.2,0,18.2,0,15,0,14.4,0
2002/11/4,9:00,11.6,0,37,0,22.1,0,36.1,0,18.2,0,14.9,0,14.4,0
2002/11/4,9:15,12.6,0,34,0,22.2,0,35.4,0,18.2,0,14.9,0,14.9,0
2002/11/4,9:30,13.1,0,34,0,22.1,0,34.7,0,18.2,0,14.9,0,15.1,0
2002/11/4,9:45,12.9,0,37,0,21.9,0,34.5,0,18.1,0,14.9,0,14.9,0
2002/11/4,10:00,13.6,0,35,0,21.8,0,34.6,0,18.1,0,14.9,0,14.8,0
2002/11/4,10:15,13.9,0,35,0,21.7,0,34.1,0,18.1,0,14.9,0,14.8,0
2002/11/4,10:30,14.1,0,35,0,21.6,0,34,0,18.1,0,14.8,0,14.8,0
2002/11/4,10:45,14.3,0,34,0,21.7,0,33.8,0,18.1,0,14.8,0,14.9,0
2002/11/4,11:00,14.7,0,37,0,21.6,0,33.9,0,18.1,0,14.8,0,15,0
2002/11/4,11:15,14.1,0,36,0,21.5,0,33.7,0,18.1,0,14.8,0,15,0
2002/11/4,11:30,13,0,40,0,21.5,0,33.7,0,18,0,14.8,0,15.1,0
2002/11/4,11:45,12.5,0,39,0,21.1,0,33.3,0,18,0,14.8,0,15,0
2002/11/4,12:00,12.8,0,38,0,20.9,0,33.5,0,18,0,14.7,0,14.9,0
2002/11/4,12:15,13.4,0,37,0,21,0,32.9,0,18,0,14.7,0,15.1,0
2002/11/4,12:30,13.3,0,37,0,20.9,0,32.8,0,18,0,14.7,0,15.1,0
2002/11/4,12:45,13,0,40,0,20.8,0,33,0,18,0,14.7,0,15.1,0
2002/11/4,13:00,12.6,0,42,0,20.6,0,33.4,0,17.9,0,14.7,0,15.1,0
2002/11/4,13:15,12.2,0,48,0,20.4,0,33.7,0,17.9,0,14.6,0,15,0
2002/11/4,13:30,12.5,0,47,0,20.2,0,35.2,0,15,0,14.6,0,15,0
2002/11/4,13:45,11.8,0,46,0,21.1,0,35.2,0,15,0,14.6,0,15,0
2002/11/4,14:00,11.4,0,53,0,21.9,0,34.6,0,15,0,14.6,0,14.9,0
2002/11/4,14:15,11.5,0,52,0,22.6,0,34.1,0,15.1,0,14.6,0,14.9,0
2002/11/4,14:30,11.6,0,48,0,23.2,0,33.7,0,15.1,0,14.7,0,14.9,0
2002/11/4,14:45,11.4,0,49,0,23.6,0,33.3,0,15.2,0,14.7,0,14.9,0
2002/11/4,15:00,11.1,0,51,0,23.9,0,32.5,0,15.3,0,14.7,0,14.8,0
2002/11/4,15:15,11.1,0,54,0,24.1,0,32.9,0,15.3,0,14.7,0,14.8,0
2002/11/4,15:30,11.1,0,53,0,24.3,0,32.9,0,15.3,0,14.7,0,14.8,0
2002/11/4,15:45,11,0,54,0,23.5,0,33.7,0,15.4,0,14.7,0,14.7,0
2002/11/4,16:00,10.9,0,54,0,23.1,0,34.2,0,15.4,0,14.7,0,14.7,0
2002/11/4,16:15,10.8,0,55,0,22.7,0,34.6,0,15.4,0,14.7,0,14.7,0
2002/11/4,16:30,10.7,0,56,0,22.3,0,35,0,15.4,0,14.7,0,14.6,0
2002/11/4,16:45,10.5,0,52,0,22,0,35.4,0,15.5,0,14.7,0,14.6,0
2002/11/4,17:00,10.5,0,51,0,21.7,0,35.7,0,15.5,0,14.7,0,14.5,0
2002/11/4,17:15,10.5,0,53,0,21.4,0,36.1,0,15.6,0,14.7,0,14.5,0
2002/11/4,17:30,10.5,0,54,0,20.8,0,35.3,0,14.3,0,14.7,0,14.4,0
2002/11/4,17:45,10.4,0,53,0,20.7,0,36.6,0,14.3,0,14.6,0,14.4,0
2002/11/4,18:00,10.4,0,52,0,20.5,0,36.9,0,14.4,0,14.5,0,14.3,0
2002/11/4,18:15,10.3,0,50,0,20.2,0,37.2,0,14.4,0,14.5,0,14.3,0
2002/11/4,18:30,10.3,0,51,0,20.1,0,37.9,0,14.5,0,14.4,0,14.2,0
2002/11/4,18:45,10.3,0,54,0,20.7,0,38.3,0,14.5,0,14.3,0,14.1,0
2002/11/4,19:00,10.3,0,55,0,21.6,0,37.5,0,14.6,0,14.3,0,14.1,0
2002/11/4,19:15,10.5,0,56,0,22.3,0,36.6,0,14.6,0,14.3,0,14,0
2002/11/4,19:30,10.4,0,57,0,22.9,0,36.1,0,14.6,0,14.3,0,14,0
2002/11/4,19:45,10.3,0,57,0,23.4,0,35.5,0,14.7,0,14.3,0,14,0
2002/11/4,20:00,10.3,0,57,0,23.8,0,35,0,14.7,0,14.3,0,13.9,0
2002/11/4,20:15,10.3,0,56,0,24,0,34.8,0,14.8,0,14.3,0,13.9,0
2002/11/4,20:30,10.4,0,51,0,24.2,0,34.6,0,14.8,0,14.3,0,13.9,0
2002/11/4,20:45,10.4,0,49,0,24.4,0,34.5,0,14.8,0,14.3,0,13.9,0
2002/11/4,21:00,10.2,0,52,0,24.5,0,34.3,0,14.8,0,14.3,0,13.8,0
2002/11/4,21:15,10.3,0,52,0,24.7,0,34.2,0,14.9,0,14.3,0,13.8,0
2002/11/4,21:30,10.1,0,48,0,24.8,0,34,0,14.9,0,14.3,0,13.8,0
2002/11/4,21:45,10.1,0,50,0,24.9,0,33.8,0,14.9,0,14.3,0,13.8,0
2002/11/4,22:00,10.2,0,50,0,25.1,0,33.5,0,15,0,14.3,0,13.7,0
2002/11/4,22:15,10.3,0,51,0,24.2,0,33.8,0,15,0,14.3,0,13.7,0
2002/11/4,22:30,10.4,0,54,0,23.4,0,33.2,0,15,0,14.3,0,13.7,0
2002/11/4,22:45,10.2,0,55,0,22.4,0,33.2,0,15.1,0,14.3,0,13.8,0
2002/11/4,23:00,10.2,0,50,0,21.7,0,33.4,0,15.1,0,14.3,0,13.9,0